ZF1RC George Town KY current weather conditions

sailwx.info

Wind from 325 at 1 knots gusting 7

Air temperature 27.2° C
Dewpoint 16.8° C

Last reported at 2017-Jan-24 18:50 UTC.
Time now 2017-Jan-24 19:28 UTC

Location: N 19°16' W 081°23'.
View on Google Maps.

See reports from other nearby stations

  
Tides and Currents Weather Stations Pressure Air Temp Water Temp Dewpoint Dewpoint Depression Visibility Wind Speed Wind Dir Waves Ship Positions
date/time (UTC)wind fromknots sea level pressurealtimeterstation pressurevisibilityair tempwater tempwave heightnotes
2017-Jan-24 18:50 325 1 gusting 7 27.2
2017-Jan-24 18:40 331 4 gusting 10 27.2
2017-Jan-24 18:30 318 9 gusting 11 26.7
2017-Jan-24 18:20 288 2 gusting 8 27.2
2017-Jan-24 18:10 350 5 gusting 10 27.8
2017-Jan-24 18:00 045 6 gusting 8 27.8
2017-Jan-24 17:50 014 6 gusting 8 27.8
2017-Jan-24 17:40 058 6 gusting 7 27.2
2017-Jan-24 17:30 332 5 gusting 11 27.2
2017-Jan-24 17:20 339 5 gusting 6 27.8
2017-Jan-24 17:10 27.8
2017-Jan-24 17:00 315 2 gusting 8 27.8
2017-Jan-24 16:50 320 6 gusting 10 27.2
2017-Jan-24 16:40 322 5 gusting 8 27.8
2017-Jan-24 16:30 338 3 gusting 8 27.2
2017-Jan-24 16:20 322 4 gusting 7 27.8
2017-Jan-24 16:10 048 4 gusting 7 27.8
2017-Jan-24 16:00 348 5 gusting 8 27.2
2017-Jan-24 15:50 310 1 gusting 8 27.2
2017-Jan-24 15:40 332 6 gusting 10 26.7
2017-Jan-24 15:30 022 3 gusting 8 26.7
2017-Jan-24 15:20 305 4 gusting 7 27.2
2017-Jan-24 15:10 337 4 gusting 8 26.7
2017-Jan-24 15:00 011 6 gusting 6 26.7
2017-Jan-24 14:50 013 5 gusting 7 26.7
2017-Jan-24 14:40 002 5 gusting 7 26.7
2017-Jan-24 14:30 337 4 gusting 8 26.7
2017-Jan-24 14:20 351 4 gusting 6 26.1
2017-Jan-24 14:10 284 4 gusting 8 26.1
2017-Jan-24 14:00 343 6 gusting 8 26.1
2017-Jan-24 13:50 354 3 gusting 8 25.6
2017-Jan-24 13:40 001 2 gusting 8 25.6
2017-Jan-24 13:30 013 4 gusting 8 25.6
2017-Jan-24 13:20 25.6
2017-Jan-24 13:10 348 6 gusting 8 25.6
2017-Jan-24 13:00 341 2 gusting 6 25.0
2017-Jan-24 12:50 334 3 gusting 6 25.0
2017-Jan-24 12:40 304 6 gusting 10 25.0
2017-Jan-24 12:30 028 5 gusting 6 25.0
2017-Jan-24 12:20 328 10 gusting 11 25.0
2017-Jan-24 12:10 354 6 gusting 10 25.0
2017-Jan-24 12:00 009 6 gusting 10 25.0
2017-Jan-24 11:50 325 5 gusting 8 25.0
2017-Jan-24 11:40 355 6 gusting 10 25.0
2017-Jan-24 11:30 337 6 gusting 8 25.0
2017-Jan-24 11:20 029 4 gusting 11 25.0
2017-Jan-24 11:10 023 5 gusting 10 25.0
2017-Jan-24 11:00 346 5 gusting 11 25.0
2017-Jan-24 10:50 354 4 gusting 11 25.0
2017-Jan-24 10:40 322 10 gusting 11 25.0
2017-Jan-24 10:30 332 6 gusting 11 25.0
2017-Jan-24 10:20 330 7 gusting 12 25.0
2017-Jan-24 10:10 324 6 gusting 10 25.0
2017-Jan-24 10:00 337 9 gusting 13 25.0
2017-Jan-24 09:50 345 5 gusting 10 25.0
2017-Jan-24 09:40 344 6 gusting 10 25.0
2017-Jan-24 09:30 334 8 gusting 10 25.0
2017-Jan-24 09:20 330 7 gusting 8 25.0
2017-Jan-24 09:10 336 6 gusting 11 25.0
2017-Jan-24 09:00 342 2 gusting 11 25.0
2017-Jan-24 08:50 319 6 gusting 8 25.0
2017-Jan-24 08:40 308 10 gusting 12 25.0
2017-Jan-24 08:30 311 4 gusting 12 25.0
2017-Jan-24 08:20 336 6 gusting 12 25.6
2017-Jan-24 08:10 323 8 gusting 12 25.6
2017-Jan-24 08:00 325 4 gusting 11 25.0
2017-Jan-24 07:50 319 8 gusting 10 25.0
2017-Jan-24 07:40 318 7 gusting 10 25.6
2017-Jan-24 07:30 279 4 gusting 6 25.6
2017-Jan-24 07:20 001 6 gusting 8 25.6
2017-Jan-24 07:10 336 6 gusting 8 25.6
2017-Jan-24 07:00 322 6 gusting 10 25.6
2017-Jan-24 06:50 001 9 gusting 10 25.6
2017-Jan-24 06:40 345 6 gusting 13 25.6
2017-Jan-24 06:30 318 7 gusting 13 25.6
2017-Jan-24 06:20 341 7 gusting 8 25.6
2017-Jan-24 06:10 008 11 gusting 13 25.6
2017-Jan-24 06:00 330 7 gusting 13 25.6
2017-Jan-24 05:50 321 6 gusting 13 25.6
2017-Jan-24 05:40 322 6 gusting 10 25.6
2017-Jan-24 05:30 352 11 gusting 12 25.6
2017-Jan-24 05:10 294 8 gusting 13 25.6
2017-Jan-24 05:00 353 9 gusting 14 25.6
2017-Jan-24 04:50 338 10 gusting 12 25.6
2017-Jan-24 04:40 326 6 gusting 13 25.6
2017-Jan-24 04:30 350 4 gusting 13 25.0
2017-Jan-24 04:20 345 10 gusting 13 25.6
2017-Jan-24 04:10 340 2 gusting 12 25.6
2017-Jan-24 04:00 306 8 gusting 11 25.6
2017-Jan-24 03:50 305 7 gusting 7 25.6
2017-Jan-24 03:40 311 10 gusting 10 26.1
2017-Jan-24 03:30 336 7 gusting 10 26.1
2017-Jan-24 03:20 304 5 gusting 12 26.1
2017-Jan-24 03:10 333 8 gusting 13 26.1
2017-Jan-24 03:00 313 10 gusting 13 26.1
2017-Jan-24 02:50 286 7 gusting 13 25.6
2017-Jan-24 02:40 328 10 gusting 12 25.6
2017-Jan-24 02:30 318 6 gusting 8 25.6
2017-Jan-24 02:20 326 8 gusting 13 25.6
2017-Jan-24 02:10 326 4 gusting 13 25.6
2017-Jan-24 02:00 299 7 gusting 13 25.6
2017-Jan-24 01:50 351 7 gusting 8 26.1
2017-Jan-24 01:40 313 7 gusting 14 26.1
2017-Jan-24 01:30 304 8 gusting 14 25.6
2017-Jan-24 01:20 286 11 gusting 13 25.6
2017-Jan-24 01:10 308 6 gusting 11 25.6
2017-Jan-24 01:00 306 10 gusting 15 25.6
2017-Jan-24 00:50 342 9 gusting 13 25.6
2017-Jan-24 00:40 326 7 gusting 14 26.1
2017-Jan-24 00:30 330 10 gusting 13 25.6
2017-Jan-24 00:20 317 11 gusting 11 25.6
2017-Jan-24 00:10 296 10 gusting 12 25.6
2017-Jan-24 00:00 344 8 gusting 13 25.6
2017-Jan-23 23:50 317 8 gusting 13 26.1
2017-Jan-23 23:40 336 10 gusting 13 26.1
2017-Jan-23 23:30 314 15 gusting 15 26.1
2017-Jan-23 23:20 352 7 gusting 17 26.1
2017-Jan-23 23:10 310 11 gusting 13 26.1
2017-Jan-23 23:00 341 7 gusting 11 26.1
2017-Jan-23 22:54 336 8 gusting 11 26.1
2017-Jan-23 22:50 271 6 gusting 10 26.1
2017-Jan-23 22:40 338 8 gusting 11 26.1
2017-Jan-23 22:30 320 10 gusting 13 26.1
2017-Jan-23 22:10 324 11 gusting 13 26.1
2017-Jan-23 22:00 349 7 gusting 12 26.1
2017-Jan-23 21:40 314 8 gusting 10 26.7
2017-Jan-23 21:30 290 4 gusting 12 26.1
2017-Jan-23 21:20 339 7 gusting 12 26.1
2017-Jan-23 21:10 316 10 gusting 10 26.1
2017-Jan-23 21:00 287 7 gusting 12 26.1
2017-Jan-23 20:50 317 5 gusting 12 25.6
2017-Jan-23 20:40 338 5 gusting 13 25.6
2017-Jan-23 20:30 255 2 gusting 13 28.3
2017-Jan-23 20:20 320 11 gusting 13 28.3
2017-Jan-23 20:10 243 6 gusting 13 28.3
2017-Jan-23 20:00 254 10 gusting 13 28.3
2017-Jan-23 19:50 226 12 gusting 12 28.3
2017-Jan-23 19:40 232 8 gusting 13 28.9
2017-Jan-23 19:30 239 12 gusting 14 28.9
2017-Jan-23 19:20 246 9 gusting 13 29.4
2017-Jan-23 19:10 259 6 gusting 11 29.4
2017-Jan-23 19:00 230 8 gusting 11 29.4
2017-Jan-23 18:50 203 8 gusting 14 28.9
2017-Jan-23 18:40 237 7 gusting 14 29.4
2017-Jan-23 18:30 228 13 gusting 14 29.4
2017-Jan-23 18:20 249 8 gusting 14 28.9
2017-Jan-23 18:10 233 8 gusting 10 29.4
2017-Jan-23 18:00 224 8 gusting 13 28.9
2017-Jan-23 17:50 215 8 gusting 13 28.9
2017-Jan-23 17:40 254 8 gusting 13 28.9
2017-Jan-23 17:30 204 10 gusting 14 28.3
2017-Jan-23 17:20 229 8 gusting 13 28.3
2017-Jan-23 17:10 233 5 gusting 13 28.3
2017-Jan-23 17:00 234 11 gusting 13 28.9
2017-Jan-23 16:50 186 6 gusting 10 28.9
2017-Jan-23 16:40 229 8 gusting 11 28.9
2017-Jan-23 16:30 197 8 gusting 11 28.3
2017-Jan-23 16:20 251 8 gusting 8 28.3
2017-Jan-23 16:10 236 11 gusting 13 28.3
2017-Jan-23 16:00 228 12 gusting 13 28.3
2017-Jan-23 15:50 250 8 gusting 14 28.3
2017-Jan-23 15:40 205 7 gusting 11 27.8
2017-Jan-23 15:30 199 7 gusting 11 28.3
2017-Jan-23 15:20 183 8 gusting 13 28.3
2017-Jan-23 15:10 204 7 gusting 11 28.3
2017-Jan-23 15:00 219 4 gusting 10 28.3
2017-Jan-23 14:50 250 6 gusting 10 27.8
2017-Jan-23 14:40 202 8 gusting 13 27.8
2017-Jan-23 14:30 205 7 gusting 12 27.2
2017-Jan-23 14:20 205 5 gusting 11 27.2
2017-Jan-23 14:10 199 6 gusting 11 27.2
2017-Jan-23 14:00 219 9 gusting 11 27.2
2017-Jan-23 13:50 205 8 gusting 11 26.7
2017-Jan-23 13:40 245 6 gusting 11 26.7
2017-Jan-23 13:30 202 8 gusting 10 26.7
2017-Jan-23 13:20 198 6 gusting 10 26.7
2017-Jan-23 13:10 208 12 gusting 15 26.7
2017-Jan-23 13:00 196 8 gusting 13 26.1
2017-Jan-23 12:50 178 9 gusting 13 26.1
2017-Jan-23 12:40 186 9 gusting 14 26.1
2017-Jan-23 12:30 210 11 gusting 13 26.1
2017-Jan-23 12:20 176 7 gusting 12 26.1
2017-Jan-23 12:10 209 5 gusting 11 26.1
2017-Jan-23 12:00 201 8 gusting 13 26.1
2017-Jan-23 11:50 202 8 gusting 13 26.1
2017-Jan-23 11:40 258 7 gusting 10 26.1
2017-Jan-23 11:30 177 7 gusting 13 26.1
2017-Jan-23 11:20 212 7 gusting 11 26.1
2017-Jan-23 11:10 160 12 gusting 15 26.1
2017-Jan-23 11:00 174 7 gusting 11 26.1
2017-Jan-23 10:50 192 7 gusting 12 26.1
2017-Jan-23 10:40 198 5 gusting 12 26.1
2017-Jan-23 10:30 172 11 gusting 11 26.1
2017-Jan-23 10:20 170 8 gusting 12 26.1
2017-Jan-23 10:10 164 5 gusting 13 26.1
2017-Jan-23 10:00 192 7 gusting 13 26.1
2017-Jan-23 09:50 180 7 gusting 15 26.1
2017-Jan-23 09:40 187 6 gusting 12 26.1
2017-Jan-23 09:30 189 6 gusting 13 26.1
2017-Jan-23 09:20 180 10 gusting 13 26.1
2017-Jan-23 09:10 191 8 gusting 13 26.1
2017-Jan-23 09:00 240 8 gusting 11 26.1
2017-Jan-23 08:50 174 10 gusting 13 26.1
2017-Jan-23 08:40 176 7 gusting 13 26.1
2017-Jan-23 08:30 192 10 gusting 12 26.1
2017-Jan-23 08:20 174 10 gusting 13 26.1
2017-Jan-23 08:10 188 6 gusting 10 26.1
2017-Jan-23 08:00 181 8 gusting 11 26.1
2017-Jan-23 07:50 231 7 gusting 10 26.1
2017-Jan-23 07:40 178 9 gusting 12 26.1
2017-Jan-23 07:30 201 9 gusting 13 26.1
2017-Jan-23 07:20 238 13 gusting 15 26.1
2017-Jan-23 07:10 200 8 gusting 14 26.1
2017-Jan-23 07:00 148 7 gusting 11 26.1
2017-Jan-23 06:50 176 7 gusting 12 26.1
2017-Jan-23 06:40 169 9 gusting 13 26.1
2017-Jan-23 06:30 164 14 gusting 14 26.1
2017-Jan-23 06:20 157 8 gusting 13 26.7
2017-Jan-23 06:10 184 13 gusting 13 26.1
2017-Jan-23 06:00 198 7 gusting 12 26.1
2017-Jan-23 05:50 129 4 gusting 11 26.1
2017-Jan-23 05:40 167 13 gusting 17 26.1
2017-Jan-23 05:30 192 6 gusting 12 26.1
2017-Jan-23 05:20 183 6 gusting 12 26.1
2017-Jan-23 05:10 185 6 gusting 13 26.1
2017-Jan-23 05:00 189 10 gusting 14 26.1
2017-Jan-23 04:50 168 10 gusting 13 26.1
2017-Jan-23 04:40 170 7 gusting 13 26.1
2017-Jan-23 04:30 184 5 gusting 13 26.1
2017-Jan-23 04:20 173 6 gusting 13 26.7
2017-Jan-23 04:10 165 9 gusting 11 26.1
2017-Jan-23 04:00 170 10 gusting 13 26.7
2017-Jan-23 03:50 195 11 gusting 19 26.7
2017-Jan-23 03:40 164 12 gusting 13 26.7
2017-Jan-23 03:30 180 8 gusting 13 26.7
2017-Jan-23 03:20 176 7 gusting 11 26.7
2017-Jan-23 03:10 164 12 gusting 12 26.7
2017-Jan-23 03:00 158 7 gusting 13 26.7
2017-Jan-23 02:50 150 6 gusting 13 26.7
2017-Jan-23 02:40 179 8 gusting 14 26.7
2017-Jan-23 02:30 185 6 gusting 14 26.7
2017-Jan-23 02:20 157 6 gusting 13 26.7
2017-Jan-23 02:10 190 7 gusting 12 26.7
2017-Jan-23 02:00 183 6 gusting 11 26.7
2017-Jan-23 01:50 179 7 gusting 8 26.7
2017-Jan-23 01:40 188 6 gusting 13 26.7
2017-Jan-23 01:30 170 10 gusting 13 26.7
2017-Jan-23 01:20 186 10 gusting 14 26.7
2017-Jan-23 01:10 113 6 gusting 11 26.7
2017-Jan-23 01:00 178 8 gusting 13 26.7
2017-Jan-23 00:50 175 7 gusting 13 26.7
2017-Jan-23 00:40 188 5 gusting 11 26.7
2017-Jan-23 00:30 141 7 gusting 10 26.7
2017-Jan-23 00:20 153 4 gusting 12 26.7
2017-Jan-23 00:10 172 10 gusting 13 26.7
2017-Jan-23 00:00 161 7 gusting 13 26.7
2017-Jan-22 23:50 123 5 gusting 13 26.7
2017-Jan-22 23:40 140 6 gusting 11 26.7
2017-Jan-22 23:30 172 14 gusting 18 26.7
2017-Jan-22 23:20 158 11 gusting 14 26.7
2017-Jan-22 23:10 191 7 gusting 13 26.7
2017-Jan-22 23:00 175 11 gusting 13 26.7
2017-Jan-22 22:54 148 12 gusting 13 26.7
2017-Jan-22 22:50 175 12 gusting 13 26.7
2017-Jan-22 22:40 174 6 gusting 10 27.2
2017-Jan-22 22:30 187 8 gusting 13 27.2
2017-Jan-22 22:20 217 7 gusting 11 27.2
2017-Jan-22 22:10 201 7 gusting 12 27.8
2017-Jan-22 22:00 160 12 gusting 13 27.8
2017-Jan-22 21:50 161 11 gusting 13 27.8
2017-Jan-22 21:40 172 6 gusting 10 27.8
2017-Jan-22 21:30 194 10 gusting 15 27.2
2017-Jan-22 21:20 173 9 gusting 14 27.8
2017-Jan-22 21:10 199 7 gusting 13 27.8
2017-Jan-22 21:00 201 8 gusting 15 27.8
2017-Jan-22 20:50 189 8 gusting 15 28.3
2017-Jan-22 20:40 179 7 gusting 11 28.3
2017-Jan-22 20:30 168 8 gusting 14 28.3
2017-Jan-22 20:20 178 12 gusting 12 28.3
2017-Jan-22 20:10 167 11 gusting 19 27.8
2017-Jan-22 20:00 190 9 gusting 15 28.3
2017-Jan-22 19:50 180 10 gusting 18 28.3
2017-Jan-22 19:40 162 13 gusting 14 28.3
2017-Jan-22 19:30 171 8 gusting 14 28.3
2017-Jan-22 19:20 162 8 gusting 14 28.3
2017-Jan-22 19:10 176 8 gusting 13 27.8
2017-Jan-22 19:00 188 8 gusting 12 28.3